Home   Weather   Darwin   Past weeks

Flag for Australia Past Weather in Darwin, Northern Territory, Australia — Yesterday and Last 2 Weeks

Now
90 °F

Sunny.


Feels Like: 86 °F
Forecast: 69 / 90 °F
Wind: 8 mph from Southeast

Location: Darwin Airport

Current Time: Jul 22, 2017 at 4:27:43 pm

Latest Report: Jul 22, 2017 at 3:30 pm


Visibility: 10 mi

Pressure: 29.86 "Hg

Humidity: 15%

Dew Point: 36 °F

Location of DarwinLocation

Past Weather in Darwin — Graph

°F

Darwin Temperature Yesterday

Maximum temperature yesterday: 90 °F (at 3:30 pm)
Minimum temperature yesterday: 68 °F (at 5:00 am)
Average temperature yesterday: 77 °F

High & Low Weather Summary for the Past Weeks

 TemperatureHumidityPressure
High93 °F (Jul 18, 3:00 pm)100% (Jul 8, 4:00 am)30.01 "Hg (Jul 8, 4:00 am)
Low66 °F (Jul 15, 6:30 am)15% (Jul 21, 1:30 pm)29.80 "Hg (Jul 20, 4:30 pm)
Average79 °F63%29.92 "Hg
* Reported Jul 7 1:30 pm — Jul 22 2:00 pm, Darwin. Weather by CustomWeather, © 2017

Note: Actual official high and low records may vary slightly from our data, if they occured in-between our weather recording intervals... More about our weather records

Advertising

Darwin Weather History for the Previous 24 Hours

Scroll right to see more
 ConditionsComfort  
Time TempWeatherWind HumidityBarometerVisibility
2:00 pm
Sat, Jul 22
86 °FSunny.9 mph24%29.92 "Hg10 mi
1:00 pm86 °FPassing clouds.12 mph20%29.95 "HgN/A
12:30 pm86 °FSunny.9 mph24%29.95 "Hg10 mi
12:00 pm86 °FSunny.7 mph31%29.98 "Hg10 mi
11:30 am84 °FSunny.5 mph35%29.98 "Hg10 mi
11:00 am81 °FSunny.6 mph32%30.01 "Hg10 mi
10:30 am79 °FSunny.7 mph30%30.01 "Hg10 mi
9:30 am77 °FSunny.9 mph28%30.01 "Hg10 mi
9:00 am73 °FSunny.10 mph31%30.01 "Hg10 mi
8:00 am70 °FSunny.9 mph40%29.98 "Hg10 mi
7:30 am68 °FClear.7 mph49%29.95 "Hg10 mi
7:00 am68 °FClear.7 mph53%29.95 "Hg10 mi
6:00 am68 °FClear.7 mph73%29.95 "Hg10 mi
5:30 am68 °FClear.7 mph83%29.92 "Hg10 mi
5:00 am68 °FClear.6 mph88%29.92 "Hg10 mi
4:30 am70 °FClear.5 mph83%29.92 "Hg10 mi
4:00 am68 °FClear.7 mph83%29.92 "Hg10 mi
3:00 am66 °FClear.3 mph88%29.95 "Hg10 mi
2:30 am66 °FClear.3 mph88%29.95 "Hg10 mi
2:00 am66 °FClear.No wind83%29.95 "Hg10 mi
1:30 am66 °FClear.No wind83%29.95 "Hg10 mi
1:00 am66 °FClear.No wind83%29.95 "Hg10 mi
12:30 am66 °FClear.No wind83%29.98 "Hg10 mi
11:30 pm
Fri, Jul 21
68 °FClear.1 mph78%29.98 "Hg10 mi
11:00 pm68 °FClear.2 mph78%29.98 "Hg10 mi
10:30 pm70 °FClear.3 mph78%29.98 "Hg10 mi
10:00 pm70 °FClear.3 mph73%29.98 "Hg10 mi
9:30 pm72 °FClear.5 mph69%29.98 "Hg10 mi
9:00 pm72 °FClear.3 mph69%29.98 "Hg10 mi
8:30 pm75 °FClear.5 mph61%29.95 "Hg10 mi
8:00 pm77 °FClear.6 mph57%29.95 "Hg10 mi
7:30 pm77 °FClear.6 mph54%29.95 "Hg10 mi
7:00 pm77 °FSunny.3 mph51%29.92 "Hg10 mi
6:30 pm81 °FSunny.5 mph45%29.92 "Hg10 mi
6:00 pm82 °FSunny.7 mph40%29.89 "Hg10 mi
5:30 pm84 °FSunny.8 mph33%29.89 "Hg10 mi
5:00 pm84 °FSunny.8 mph35%29.89 "Hg10 mi
4:30 pm88 °FSunny.8 mph25%29.86 "Hg10 mi
4:00 pm90 °FSunny.9 mph18%29.86 "Hg10 mi
Weather by CustomWeather, © 2017

See weather overviewHow to use our weather pages